When you browse on this site, cookies collect data to enhance your experience and personalize the content and advertising you see.
Visit our Privacy Policy to learn more. By continuing to use the site, you agree to this use of cookies and data.

Hourly Weather Guanare

Today, 4 July, Saturday

Time Temperature Precipitation Wind Pressure Humidity
00:00 +24°C° 0.1 mm 1 mps 741 mmHg 86%
01:00 +24°C° 0.1 mm 1 mps 741 mmHg 85%
02:00 +24°C° 0 mm 1 mps 741 mmHg 84%
03:00 +24°C° 0 mm 1 mps 741 mmHg 83%
04:00 +24°C° 0 mm 1 mps 741 mmHg 82%
05:00 +25°C° 0 mm 1 mps 741 mmHg 82%
06:00 +26°C° 0 mm 1 mps 742 mmHg 82%
07:00 +27°C° 0 mm 1 mps 742 mmHg 81%
08:00 +28°C° 0.4 mm 1 mps 742 mmHg 80%
09:00 +29°C° 0.4 mm 1 mps 743 mmHg 78%
10:00 +30°C° 0.4 mm 1 mps 743 mmHg 77%
11:00 +31°C° 0.3 mm 1 mps 742 mmHg 72%
12:00 +32°C° 0.3 mm 1 mps 742 mmHg 67%
13:00 +33°C° 0.3 mm 1 mps 741 mmHg 62%
14:00 +32°C° 0 mm 1 mps 741 mmHg 64%
15:00 +32°C° 0 mm 1 mps 740 mmHg 66%
16:00 +32°C° 0 mm 1 mps 740 mmHg 68%
17:00 +30°C° 0 mm 1 mps 740 mmHg 76%
18:00 +28°C° 0 mm 1 mps 740 mmHg 84%
19:00 +26°C° 0 mm 1 mps 741 mmHg 92%
20:00 +25°C° 0 mm 1 mps 741 mmHg 90%
21:00 +25°C° 0 mm 1 mps 742 mmHg 88%
22:00 +24°C° 0 mm 1 mps 742 mmHg 85%
23:00 +24°C° 0 mm 1 mps 742 mmHg 80%

Tomorrow, 5 July, Sunday

Time Temperature Precipitation Wind Pressure Humidity
00:00 +24°C° 0 mm 1 mps 742 mmHg 76%
01:00 +24°C° 0 mm 1 mps 742 mmHg 71%
02:00 +23°C° 0 mm 1 mps 741 mmHg 69%
03:00 +23°C° 0 mm 1 mps 741 mmHg 67%
04:00 +23°C° 0 mm 1 mps 741 mmHg 64%
05:00 +24°C° 0 mm 1 mps 741 mmHg 67%
06:00 +24°C° 0 mm 1 mps 742 mmHg 69%
07:00 +25°C° 0 mm 1 mps 742 mmHg 71%
08:00 +27°C° 0 mm 1 mps 743 mmHg 67%
09:00 +29°C° 0 mm 1 mps 743 mmHg 62%
10:00 +32°C° 0 mm 1 mps 743 mmHg 58%
11:00 +32°C° 0 mm 1 mps 742 mmHg 57%
12:00 +34°C° 0 mm 2 mps 742 mmHg 56%
13:00 +34°C° 0 mm 2 mps 741 mmHg 55%
14:00 +34°C° 0 mm 2 mps 740 mmHg 59%
15:00 +32°C° 0 mm 2 mps 740 mmHg 63%
16:00 +32°C° 0 mm 2 mps 739 mmHg 67%
17:00 +30°C° 0 mm 1 mps 740 mmHg 76%
18:00 +28°C° 0 mm 1 mps 740 mmHg 84%
19:00 +24°C° 0 mm 0 mps 741 mmHg 93%
20:00 +23°C° 0 mm 0 mps 741 mmHg 93%
21:00 +25°C° 0 mm 1 mps 742 mmHg 93%
22:00 +25°C° 0 mm 1 mps 742 mmHg 92%
23:00 +25°C° 0.2 mm 1 mps 742 mmHg 92%

Day after tomorrow, 6 July, Monday

Time Temperature Precipitation Wind Pressure Humidity
00:00 +24°C° 0.2 mm 1 mps 742 mmHg 92%
01:00 +24°C° 0.2 mm 1 mps 741 mmHg 91%
02:00 +24°C° 0.5 mm 1 mps 741 mmHg 92%
03:00 +24°C° 0.5 mm 1 mps 741 mmHg 92%
04:00 +23°C° 0.5 mm 1 mps 741 mmHg 93%
05:00 +24°C° 0.7 mm 1 mps 742 mmHg 93%
06:00 +24°C° 0.7 mm 1 mps 742 mmHg 94%
07:00 +25°C° 0.7 mm 1 mps 743 mmHg 94%
08:00 +25°C° 0.7 mm 1 mps 743 mmHg 94%
09:00 +24°C° 0.7 mm 0 mps 743 mmHg 93%
10:00 +25°C° 0.7 mm 0 mps 743 mmHg 93%
11:00 +26°C° 1.2 mm 0 mps 743 mmHg 90%
12:00 +27°C° 1.2 mm 0 mps 742 mmHg 87%
13:00 +29°C° 1.2 mm 1 mps 742 mmHg 84%
14:00 +30°C° 0.9 mm 1 mps 741 mmHg 83%
15:00 +28°C° 0.9 mm 0 mps 741 mmHg 82%
16:00 +28°C° 0.9 mm 0 mps 740 mmHg 82%
17:00 +28°C° 1.3 mm 1 mps 741 mmHg 86%
18:00 +27°C° 1.3 mm 1 mps 741 mmHg 90%
19:00 +25°C° 1.3 mm 1 mps 742 mmHg 95%
20:00 +25°C° 2.3 mm 1 mps 742 mmHg 96%
21:00 +25°C° 2.3 mm 1 mps 742 mmHg 97%
22:00 +24°C° 2.3 mm 1 mps 742 mmHg 98%
23:00 +24°C° 0.2 mm 1 mps 742 mmHg 97%

7 July, Tuesday

Time Temperature Precipitation Wind Pressure Humidity
00:00 +24°C° 0.2 mm 1 mps 742 mmHg 97%
01:00 +24°C° 0.2 mm 1 mps 741 mmHg 96%
02:00 +23°C° 0.5 mm 1 mps 741 mmHg 96%
03:00 +23°C° 0.5 mm 1 mps 741 mmHg 95%
04:00 +23°C° 0.5 mm 1 mps 741 mmHg 95%
05:00 +22°C° 0.6 mm 0 mps 741 mmHg 95%
06:00 +22°C° 0.6 mm 0 mps 742 mmHg 95%
07:00 +23°C° 0.6 mm 0 mps 742 mmHg 95%
08:00 +25°C° 0.8 mm 1 mps 743 mmHg 95%
09:00 +26°C° 0.8 mm 1 mps 743 mmHg 94%
10:00 +27°C° 0.8 mm 1 mps 743 mmHg 94%
11:00 +26°C° 1.1 mm 2 mps 743 mmHg 94%
12:00 +26°C° 1.1 mm 2 mps 742 mmHg 94%
13:00 +26°C° 1.1 mm 2 mps 742 mmHg 94%
14:00 +26°C° 2.4 mm 1 mps 741 mmHg 95%
15:00 +26°C° 2.4 mm 1 mps 741 mmHg 96%
16:00 +25°C° 2.4 mm 1 mps 740 mmHg 98%
17:00 +25°C° 1.4 mm 1 mps 741 mmHg 97%
18:00 +23°C° 1.4 mm 0 mps 741 mmHg 97%
19:00 +22°C° 1.4 mm 0 mps 741 mmHg 97%
20:00 +24°C° 0.4 mm 1 mps 742 mmHg 97%
21:00 +24°C° 0.4 mm 1 mps 742 mmHg 97%
22:00 +24°C° 0.4 mm 1 mps 742 mmHg 97%
23:00 +24°C° 0.2 mm 1 mps 742 mmHg 97%

8 July, Wednesday

Time Temperature Precipitation Wind Pressure Humidity
00:00 +24°C° 0.2 mm 1 mps 741 mmHg 96%
01:00 +24°C° 0.2 mm 1 mps 741 mmHg 96%
02:00 +24°C° 0.2 mm 1 mps 741 mmHg 96%
03:00 +24°C° 0.2 mm 1 mps 741 mmHg 96%
04:00 +24°C° 0.2 mm 1 mps 741 mmHg 96%
05:00 +24°C° 0.5 mm 1 mps 741 mmHg 95%
06:00 +22°C° 0.5 mm 0 mps 742 mmHg 94%
07:00 +23°C° 0.5 mm 0 mps 742 mmHg 93%
08:00 +24°C° 0.6 mm 0 mps 742 mmHg 92%
09:00 +25°C° 0.6 mm 0 mps 743 mmHg 90%
10:00 +26°C° 0.6 mm 0 mps 743 mmHg 88%
11:00 +26°C° 2.1 mm 0 mps 742 mmHg 88%
12:00 +27°C° 2.1 mm 0 mps 742 mmHg 87%
13:00 +27°C° 2.1 mm 0 mps 741 mmHg 87%
14:00 +27°C° 0.6 mm 0 mps 741 mmHg 86%
15:00 +27°C° 0.6 mm 0 mps 740 mmHg 86%
16:00 +26°C° 0.6 mm 0 mps 740 mmHg 86%
17:00 +25°C° 0.1 mm 0 mps 740 mmHg 88%
18:00 +26°C° 0.1 mm 1 mps 741 mmHg 91%
19:00 +25°C° 0.1 mm 1 mps 741 mmHg 93%
20:00 +25°C° 0 mm 1 mps 741 mmHg 92%
21:00 +25°C° 0 mm 1 mps 742 mmHg 91%
22:00 +24°C° 0 mm 1 mps 742 mmHg 90%
23:00 +24°C° 0 mm 1 mps 742 mmHg 88%

9 July, Thursday

Time Temperature Precipitation Wind Pressure Humidity
00:00 +24°C° 0 mm 1 mps 742 mmHg 86%
01:00 +24°C° 0 mm 1 mps 741 mmHg 84%
02:00 +24°C° 0 mm 1 mps 741 mmHg 83%
03:00 +24°C° 0 mm 1 mps 742 mmHg 82%
04:00 +24°C° 0 mm 1 mps 742 mmHg 81%
05:00 +24°C° 0.5 mm 1 mps 742 mmHg 84%
06:00 +24°C° 0.5 mm 1 mps 742 mmHg 86%
07:00 +25°C° 0.5 mm 1 mps 743 mmHg 89%
08:00 +26°C° 0.5 mm 1 mps 743 mmHg 87%
09:00 +28°C° 0.5 mm 1 mps 743 mmHg 84%
10:00 +29°C° 0.5 mm 1 mps 743 mmHg 81%
11:00 +30°C° 0.4 mm 1 mps 743 mmHg 76%
12:00 +31°C° 0.4 mm 1 mps 742 mmHg 70%
13:00 +32°C° 0.4 mm 2 mps 742 mmHg 64%
14:00 +32°C° 0 mm 2 mps 741 mmHg 66%
15:00 +31°C° 0 mm 2 mps 741 mmHg 68%
16:00 +31°C° 0 mm 2 mps 740 mmHg 70%
17:00 +29°C° 0.1 mm 1 mps 740 mmHg 78%
18:00 +27°C° 0.1 mm 1 mps 741 mmHg 86%
19:00 +26°C° 0.1 mm 1 mps 741 mmHg 94%
20:00 +25°C° 0.1 mm 1 mps 742 mmHg 93%
21:00 +25°C° 0.1 mm 1 mps 742 mmHg 92%
22:00 +24°C° 0.1 mm 1 mps 743 mmHg 91%
23:00 +24°C° 0 mm 1 mps 742 mmHg 88%
Show more